Showing default

SIRION PATHFINDER-2, 43759

Orbit data source: Space-Track

SIRION PATHFINDER-2, 43759 is an American payload satellite in SSO that was launched on Mon, 03 Dec 2018 UTC via an FALCON 9 launch vehicle from the Air Force Western Test Range (AFWTR). Payload-class satellites include a variety of spacecraft equipped with specific instruments for various scientific and technological missions. These include communications satellites like Starlink; space stations such as the ISS; scientific satellites like the Hubble; Earth observation satellites from companies like Planet Labs, Umbra, and HawkEye 360; GPS; miniature CubeSats for education and research; and military/defense satellites.

Loading next visibility...
Identifier
43759, 2018-099B
Orbit
SSO
Country
Flag of USUS
Related business
Manufacturer
Astro Digital
Mission
Operational Commercial Communications
Bus & Motor
CUBESAT 6U, Unknown motor
Mass
10 kg wet, 10 kg dry
Launch date (UTC)
2018-12-03 (7 years ago)
Launch vehicle
FALCON 9
Launch site
Air Force Western Test Range (AFWTR)
Object type
Payload
Rocket body
Debris
Shape & HBR
Box + 2 Pan, 0.7 m
Radar Cross Section
0.143 m², Small (<0.1 m²)

Expand to show TLE details & history
Last TLE update: 16 hours ago

TLE from 16 hours ago
0 SIRION PATHFINDER-2
1 43759U 18099B   26034.40038580  .00006309  00000-0  35957-3 0  9998
2 43759  97.4458  86.6326 0010160  50.3006 309.9119 15.13094988392385
Epoch: 2026-02-03T09:36Z
TLE epoch observation values (Epoch: 2026-02-03T09:36:33.333Z)
Latitude
-0.00005°
Longitude
168.91186°
Altitude
525.35 km
Speed
7.603 km/s
True Right ascension
05h 46m 31s
True Declination
0° 00' 00"
Sunlit
Object was in full shadow at epoch
Visualization orbit readout
Latitude
Unknown
Longitude
Unknown
Altitude
Unknown
Speed
Unknown
Apparent Right ascension
Unknown
Apparent Declination
Unknown
Sunlit
N/A
Visualization observer readout
Local Sidereal Time
03:54:37
Azimuth
Unknown
Elevation
Unknown
Doppler factor
Unknown
Orbital elements
Apogee altitude
530.757 km
Perigee altitude
516.733 km
Semi-major axis
6,901.882 km
Eccentricity
0.00102
Inclination
97.4458°
RAAN
86.6326°
Arg. of periapsis
50.3006°
True anomaly
309.82253°
Mean anomaly
309.9119°
Eccentric anomaly
309.86722°
Mean motion
3.78523 °/min
Orbital period
95.11 mins
BSTAR
0.00035957
Loading maneuver chart data...
Computing Atmospheric mass density...
Loading historical data...
Loading historical data...
Loading historical data...
Loading historical data...
Loading historical data...
Loading historical data...
Loading historical data...

Documentation

Showing up to 5 results
|